Weather History for PHLI - March, 2013

Change the Weather History Date:

Saturday, March 9, 2013

  Actual Average Record
Temperature  
Mean Temperature 72 °F 72 °F  
Max Temperature 76 °F 78 °F 83 °F (1984)
Min Temperature 67 °F 66 °F 57 °F (1953)
Degree Days  
Heating Degree Days 0 0  
Month to date heating degree days 0 0  
Since 1 July heating degree days 0 0  
Cooling Degree Days 7 7  
Month to date cooling degree days 61 63  
Year to date cooling degree days 448 458  
Growing Degree Days 18 (Base 50)    
Moisture  
Dew Point 63 °F    
Average Humidity 79    
Maximum Humidity 93    
Minimum Humidity 64    
Precipitation  
Precipitation 0.11 in 0.15 in 3.63 in (2012)
Month to date precipitation 0.16 1.32  
Year to date precipitation 7.04 8.23  
Snow  
Snow 0.00 in - - ()
Month to date snowfall 0.0  
Since 1 July snowfall 0.0  
Snow Depth 0.00 in    
Sea Level Pressure  
Sea Level Pressure 29.89 in    
Wind  
Wind Speed 13 mph (SW)    
Max Wind Speed 25 mph    
Max Gust Speed 37 mph    
Visibility 10 miles    
Events Rain    
T = Trace of Precipitation, MM = Missing Value Source: NWS Daily Summary

Daily Weather History Graph

Daily Weather History Graph

Search for Another Location

Airport or City:

Trip Planner

Search our weather history database for the weather conditions in past years. The results will help you decide how hot, cold, wet, or windy it might be!

Date:

Astronomy

Mar. 09, 2013 Rise Set
Actual Time 6:51 AM HST 6:44 PM HST
Civil Twilight 6:28 AM HST 7:07 PM HST
Nautical Twilight 6:02 AM HST 7:32 PM HST
Astronomical Twilight 5:36 AM HST 7:58 PM HST
Moon 5:11 AM HST (3/9) 5:06 PM HST (3/9)
Length of Visible Light 12h 38m
Length of Day
11h 53m
Waning Crescent, 4% of the Moon is Illuminated
Mar 9
Waning Crescent
Mar 11
New
Mar 19
First Quarter
Mar 26
Full
Apr 2
Last Quarter

Hourly Weather History & Observations

Time (HST) Temp. Dew Point Humidity Pressure Visibility Wind Dir Wind Speed Gust Speed Precip Events Conditions
12:53 AM 68.0 °F 60.1 °F 76% 29.91 in 10.0 mi SW 9.2 mph - N/A   Scattered Clouds
1:53 AM 72.0 °F 64.0 °F 76% 29.88 in 10.0 mi South 12.7 mph 26.5 mph N/A   Partly Cloudy
2:53 AM 71.1 °F 62.1 °F 73% 29.87 in 10.0 mi SSW 11.5 mph - N/A   Clear
3:53 AM 70.0 °F 64.0 °F 81% 29.84 in 10.0 mi SW 16.1 mph - 0.00 in   Overcast
4:53 AM 70.0 °F 63.0 °F 78% 29.84 in 10.0 mi WSW 12.7 mph - N/A   Mostly Cloudy
5:53 AM 70.0 °F 64.0 °F 81% 29.86 in 10.0 mi SW 12.7 mph - N/A   Scattered Clouds
6:53 AM 70.0 °F 62.1 °F 76% 29.88 in 10.0 mi SW 10.4 mph - N/A   Partly Cloudy
7:01 AM 69.8 °F 62.6 °F 78% 29.89 in 10.0 mi WSW 11.5 mph - N/A   Scattered Clouds
7:53 AM 73.0 °F 62.1 °F 68% 29.90 in 10.0 mi SSW 13.8 mph 17.3 mph N/A   Scattered Clouds
8:53 AM 75.0 °F 62.1 °F 64% 29.91 in 10.0 mi SSW 9.2 mph - N/A   Partly Cloudy
9:53 AM 73.9 °F 64.0 °F 71% 29.92 in 10.0 mi South 10.4 mph - 0.00 in   Overcast
10:53 AM 73.9 °F 66.0 °F 76% 29.91 in 10.0 mi South 15.0 mph 21.9 mph 0.01 in Rain Light Rain
11:08 AM 71.6 °F 64.4 °F 78% 29.92 in 10.0 mi SW 8.1 mph - 0.00 in Rain Light Rain
11:20 AM 73.4 °F 64.4 °F 73% 29.92 in 10.0 mi South 9.2 mph - 0.00 in   Mostly Cloudy
11:53 AM 75.0 °F 64.0 °F 69% 29.91 in 10.0 mi WSW 17.3 mph 23.0 mph 0.00 in Rain Light Rain
12:45 PM 66.2 °F 62.6 °F 88% 29.91 in 3.0 mi South 10.4 mph - 0.05 in Rain Heavy Rain
12:53 PM 66.9 °F 63.0 °F 87% 29.90 in 5.0 mi South 10.4 mph - 0.07 in Rain Light Rain
1:53 PM 73.0 °F 64.9 °F 76% 29.87 in 10.0 mi WSW 16.1 mph - 0.00 in Rain Light Rain
2:53 PM 66.9 °F 64.0 °F 90% 29.87 in 7.0 mi SW 10.4 mph - 0.01 in Rain Rain
3:53 PM 68.0 °F 63.0 °F 84% 29.86 in 10.0 mi WSW 16.1 mph - 0.02 in Rain Light Rain
4:53 PM 68.0 °F 64.0 °F 87% 29.87 in 10.0 mi SW 11.5 mph - 0.00 in   Mostly Cloudy
5:53 PM 68.0 °F 63.0 °F 84% 29.88 in 10.0 mi SW 11.5 mph - N/A   Partly Cloudy
6:53 PM 68.0 °F 63.0 °F 84% 29.88 in 10.0 mi SW 11.5 mph - N/A   Mostly Cloudy
7:53 PM 66.9 °F 63.0 °F 87% 29.88 in 10.0 mi SW 6.9 mph - N/A   Partly Cloudy
8:34 PM 68.0 °F 62.6 °F 83% 29.90 in 10.0 mi SSW 3.5 mph - N/A   Partly Cloudy
8:53 PM 68.0 °F 63.0 °F 84% 29.90 in 10.0 mi SSW 4.6 mph - N/A   Clear
9:33 PM 68.0 °F 62.6 °F 83% 29.91 in 10.0 mi South 4.6 mph - N/A   Scattered Clouds
9:53 PM 66.9 °F 63.0 °F 87% 29.91 in 10.0 mi SSW 3.5 mph - N/A   Scattered Clouds
10:53 PM 68.0 °F 63.0 °F 84% 29.92 in 10.0 mi Calm Calm - N/A   Overcast
11:53 PM 66.0 °F 63.0 °F 90% 29.91 in 10.0 mi Calm Calm - N/A   Overcast